AHY7149 UBBB-UDYZ

Flight info

Callsign AHY7149
Flight time 1h 8m
Altitude 30000
Route N0470F300 GILAB N449 DEKIT T919 GOSIS
Aircraft B763/H-VGDW/C

Departure

Time 2026-05-06 08:45
Airport Heydar Aliyev International Airport (UBBB)

Arrival

Time 2026-05-06 09:54
Airport Zvartnots International Airport (UDYZ)
Time Latitude Longitude Altitude Speed Heading
2026-05-06 08:23 40.46733 50.05248 19 ft 0 kts 177°
2026-05-06 08:36 40.46741 50.05247 18 ft 2 kts 177°
2026-05-06 08:36 40.46756 50.05246 18 ft 2 kts 177°
2026-05-06 08:37 40.46771 50.05245 18 ft 2 kts 177°
2026-05-06 08:37 40.46786 50.05244 18 ft 2 kts 177°
2026-05-06 08:37 40.46801 50.05244 18 ft 2 kts 177°
2026-05-06 08:37 40.46814 50.05243 18 ft 0 kts 177°
2026-05-06 08:38 40.46825 50.05241 18 ft 2 kts 145°
2026-05-06 08:38 40.46833 50.05225 18 ft 2 kts 98°
2026-05-06 08:38 40.46834 50.05216 18 ft 0 kts 86°
2026-05-06 08:40 40.46835 50.05248 18 ft 7 kts 88°
2026-05-06 08:40 40.46835 50.05316 18 ft 5 kts 91°
2026-05-06 08:40 40.46831 50.05363 18 ft 5 kts 111°
2026-05-06 08:40 40.46788 50.05402 18 ft 10 kts 156°
2026-05-06 08:41 40.46694 50.05460 18 ft 19 kts 153°
2026-05-06 08:41 40.46573 50.05558 18 ft 19 kts 145°
2026-05-06 08:41 40.46513 50.05696 18 ft 16 kts 91°
2026-05-06 08:41 40.46514 50.05843 18 ft 15 kts 89°
2026-05-06 08:42 40.46473 50.05940 18 ft 12 kts 160°
2026-05-06 08:42 40.46384 50.05960 18 ft 13 kts 179°
2026-05-06 08:42 40.46285 50.05962 18 ft 14 kts 179°
2026-05-06 08:42 40.46172 50.05965 18 ft 17 kts 180°
2026-05-06 08:43 40.46045 50.05965 18 ft 17 kts 180°
2026-05-06 08:43 40.45927 50.05966 18 ft 16 kts 178°
2026-05-06 08:43 40.45849 50.06036 18 ft 13 kts 109°
2026-05-06 08:43 40.45788 50.06100 18 ft 10 kts 175°
2026-05-06 08:44 40.45717 50.06110 18 ft 10 kts 165°
2026-05-06 08:44 40.45662 50.06200 18 ft 16 kts 98°
2026-05-06 08:44 40.45757 50.06318 18 ft 28 kts
2026-05-06 08:44 40.46128 50.06315 18 ft 89 kts 359°
2026-05-06 08:45 40.47005 50.06301 35 ft 159 kts 359°
2026-05-06 08:45 40.48224 50.06277 466 ft 193 kts 359°
2026-05-06 08:45 40.49722 50.06027 734 ft 245 kts 349°
2026-05-06 08:45 40.51598 50.05531 1043 ft 299 kts 350°
2026-05-06 08:46 40.53699 50.05035 2119 ft 303 kts 351°
2026-05-06 08:46 40.55622 50.04588 3851 ft 278 kts 351°
2026-05-06 08:46 40.57467 50.04170 5025 ft 267 kts 350°
2026-05-06 08:46 40.59201 50.03574 6165 ft 254 kts 333°
2026-05-06 08:47 40.60495 50.02103 7010 ft 252 kts 303°
2026-05-06 08:47 40.61095 49.99963 7809 ft 252 kts 281°
2026-05-06 08:47 40.61339 49.97596 8007 ft 264 kts 275°
2026-05-06 08:47 40.61477 49.95242 7977 ft 254 kts 272°
2026-05-06 08:48 40.61565 49.92910 7994 ft 258 kts 270°
2026-05-06 08:48 40.61626 49.90487 7995 ft 264 kts 269°
2026-05-06 08:48 40.61673 49.88050 7993 ft 264 kts 268°
2026-05-06 08:48 40.61712 49.85662 7991 ft 262 kts 268°
2026-05-06 08:49 40.61748 49.83236 7994 ft 263 kts 268°
2026-05-06 08:49 40.61749 49.80827 7989 ft 261 kts 261°
2026-05-06 08:49 40.61149 49.78604 8007 ft 255 kts 232°
2026-05-06 08:49 40.59809 49.77093 8014 ft 254 kts 204°
2026-05-06 08:50 40.58129 49.76441 8011 ft 254 kts 192°
2026-05-06 08:50 40.56369 49.76008 7991 ft 253 kts 191°
2026-05-06 08:50 40.54625 49.75630 7993 ft 253 kts 189°
2026-05-06 08:50 40.52892 49.75291 7993 ft 254 kts 189°
2026-05-06 08:51 40.51128 49.74964 7991 ft 252 kts 189°
2026-05-06 08:51 40.49390 49.74652 7993 ft 253 kts 188°
2026-05-06 08:51 40.47636 49.74342 7993 ft 253 kts 188°
2026-05-06 08:51 40.45889 49.74036 7992 ft 253 kts 188°
2026-05-06 08:52 40.44151 49.73732 7992 ft 253 kts 188°
2026-05-06 08:52 40.42384 49.73405 8012 ft 259 kts 194°
2026-05-06 08:52 40.40845 49.72329 8917 ft 252 kts 222°
2026-05-06 08:52 40.39889 49.70373 9539 ft 262 kts 251°
2026-05-06 08:53 40.39791 49.67977 10177 ft 274 kts 276°
2026-05-06 08:53 40.40544 49.65535 10245 ft 310 kts 301°
2026-05-06 08:53 40.42093 49.63363 10312 ft 343 kts 319°
2026-05-06 08:53 40.44262 49.61813 10911 ft 358 kts 338°
2026-05-06 08:54 40.46682 49.61002 11594 ft 365 kts 343°
2026-05-06 08:54 40.49042 49.59743 12334 ft 364 kts 326°
2026-05-06 08:54 40.50984 49.57719 13034 ft 361 kts 309°
2026-05-06 08:54 40.52417 49.55038 13778 ft 356 kts 292°
2026-05-06 08:55 40.53183 49.52012 14515 ft 349 kts 275°
2026-05-06 08:55 40.53249 49.48900 15223 ft 343 kts 258°
2026-05-06 08:55 40.52611 49.45923 15981 ft 338 kts 242°
2026-05-06 08:55 40.51383 49.43308 16713 ft 336 kts 232°
2026-05-06 08:56 40.50016 49.40777 17463 ft 337 kts 233°
2026-05-06 08:56 40.48672 49.38285 18175 ft 338 kts 233°
2026-05-06 08:56 40.47306 49.35755 18759 ft 343 kts 233°
2026-05-06 08:56 40.45921 49.33193 19408 ft 346 kts 232°
2026-05-06 08:57 40.44558 49.30664 20057 ft 348 kts 233°
2026-05-06 08:57 40.43380 49.27831 20619 ft 356 kts 244°
2026-05-06 08:57 40.42624 49.24683 21188 ft 364 kts 251°
2026-05-06 08:57 40.42125 49.21416 21792 ft 369 kts 255°
2026-05-06 08:58 40.41746 49.18076 22357 ft 374 kts 257°
2026-05-06 08:58 40.41426 49.14666 22913 ft 378 kts 258°
2026-05-06 08:58 40.41138 49.11260 23455 ft 381 kts 258°
2026-05-06 08:58 40.40865 49.07819 23983 ft 385 kts 259°
2026-05-06 08:59 40.40592 49.04284 24528 ft 388 kts 259°
2026-05-06 08:59 40.40326 49.00788 25030 ft 392 kts 259°
2026-05-06 08:59 40.40055 48.97199 25561 ft 394 kts 259°
2026-05-06 08:59 40.39784 48.93616 26044 ft 398 kts 259°
2026-05-06 09:00 40.39510 48.89998 26517 ft 402 kts 259°
2026-05-06 09:00 40.39236 48.86381 26962 ft 406 kts 259°
2026-05-06 09:00 40.38957 48.82709 27461 ft 408 kts 259°
2026-05-06 09:00 40.38672 48.78988 27927 ft 411 kts 259°
2026-05-06 09:01 40.38385 48.75246 28383 ft 414 kts 259°
2026-05-06 09:01 40.38096 48.71502 28832 ft 417 kts 259°
2026-05-06 09:01 40.37801 48.67692 29271 ft 421 kts 259°
2026-05-06 09:01 40.37505 48.63895 29701 ft 424 kts 259°
2026-05-06 09:02 40.37204 48.60034 29997 ft 420 kts 259°
2026-05-06 09:02 40.36919 48.56342 29965 ft 403 kts 259°
2026-05-06 09:02 40.36639 48.52747 29972 ft 385 kts 259°
2026-05-06 09:02 40.36369 48.49327 29970 ft 368 kts 259°
2026-05-06 09:03 40.36115 48.46112 29969 ft 352 kts 259°
2026-05-06 09:03 40.35865 48.42961 29968 ft 336 kts 258°
2026-05-06 09:03 40.35628 48.39996 29967 ft 320 kts 258°
2026-05-06 09:04 40.35171 48.34367 29989 ft 309 kts 257°
2026-05-06 09:04 40.34708 48.28698 29995 ft 315 kts 258°
2026-05-06 09:05 40.34246 48.23001 29991 ft 313 kts 257°
2026-05-06 09:05 40.33781 48.17329 29993 ft 314 kts 257°
2026-05-06 09:06 40.33315 48.11666 29992 ft 314 kts 258°
2026-05-06 09:06 40.32846 48.05992 29991 ft 314 kts 258°
2026-05-06 09:07 40.32372 48.00310 29991 ft 314 kts 258°
2026-05-06 09:07 40.31898 47.94645 29995 ft 314 kts 258°
2026-05-06 09:08 40.31420 47.88974 30000 ft 314 kts 258°
2026-05-06 09:08 40.30938 47.83291 30005 ft 314 kts 258°
2026-05-06 09:09 40.30456 47.77642 30009 ft 314 kts 258°
2026-05-06 09:09 40.29969 47.71968 30010 ft 314 kts 258°
2026-05-06 09:10 40.29481 47.66310 30008 ft 314 kts 257°
2026-05-06 09:10 40.28989 47.60640 30005 ft 313 kts 257°
2026-05-06 09:11 40.28496 47.54995 30004 ft 313 kts 257°
2026-05-06 09:11 40.28000 47.49348 30001 ft 313 kts 257°
2026-05-06 09:12 40.27499 47.43673 29999 ft 313 kts 257°
2026-05-06 09:12 40.26995 47.37997 29998 ft 313 kts 257°
2026-05-06 09:13 40.26493 47.32373 30002 ft 312 kts 257°
2026-05-06 09:13 40.25987 47.26743 30000 ft 313 kts 257°
2026-05-06 09:14 40.25476 47.21086 29997 ft 313 kts 257°
2026-05-06 09:14 40.24966 47.15469 29995 ft 312 kts 257°
2026-05-06 09:15 40.24448 47.09793 29994 ft 312 kts 256°
2026-05-06 09:15 40.23932 47.04173 29990 ft 311 kts 256°
2026-05-06 09:16 40.23415 46.98564 29994 ft 312 kts 256°
2026-05-06 09:16 40.22894 46.92952 29996 ft 311 kts 256°
2026-05-06 09:17 40.22371 46.87345 30000 ft 310 kts 256°
2026-05-06 09:17 40.21849 46.81780 30005 ft 309 kts 256°
2026-05-06 09:18 40.21324 46.76210 30006 ft 309 kts 256°
2026-05-06 09:18 40.20797 46.70647 30005 ft 309 kts 256°
2026-05-06 09:19 40.20270 46.65115 30002 ft 308 kts 256°
2026-05-06 09:19 40.19738 46.59558 29998 ft 307 kts 256°
2026-05-06 09:20 40.19207 46.54047 29999 ft 308 kts 255°
2026-05-06 09:20 40.18670 46.48488 29994 ft 307 kts 255°
2026-05-06 09:21 40.18132 46.42961 29994 ft 307 kts 255°
2026-05-06 09:21 40.17597 46.37482 29990 ft 306 kts 255°
2026-05-06 09:22 40.17051 46.31925 29996 ft 306 kts 255°
2026-05-06 09:22 40.16512 46.26466 29993 ft 305 kts 254°
2026-05-06 09:22 40.16232 46.23672 29807 ft 317 kts 255°
2026-05-06 09:23 40.15935 46.20772 29579 ft 331 kts 258°
2026-05-06 09:23 40.15628 46.17722 29296 ft 347 kts 259°
2026-05-06 09:23 40.15311 46.14498 28972 ft 365 kts 259°
2026-05-06 09:23 40.14978 46.11152 28622 ft 380 kts 260°
2026-05-06 09:24 40.14635 46.07711 28245 ft 381 kts 260°
2026-05-06 09:24 40.14295 46.04310 27868 ft 377 kts 260°
2026-05-06 09:24 40.13953 46.00921 27490 ft 378 kts 260°
2026-05-06 09:24 40.13608 45.97512 27123 ft 379 kts 260°
2026-05-06 09:25 40.13114 45.94165 26765 ft 377 kts 255°
2026-05-06 09:25 40.12495 45.90823 26407 ft 377 kts 255°
2026-05-06 09:25 40.11879 45.87504 26048 ft 378 kts 255°
2026-05-06 09:25 40.11258 45.84193 25690 ft 378 kts 255°
2026-05-06 09:26 40.10632 45.80872 25331 ft 379 kts 255°
2026-05-06 09:26 40.09997 45.77518 24969 ft 379 kts 255°
2026-05-06 09:26 40.09371 45.74218 24614 ft 378 kts 255°
2026-05-06 09:26 40.08729 45.70842 24252 ft 379 kts 255°
2026-05-06 09:27 40.08095 45.67516 23895 ft 379 kts 255°
2026-05-06 09:27 40.07460 45.64189 23537 ft 378 kts 255°
2026-05-06 09:27 40.06833 45.60907 23187 ft 376 kts 255°
2026-05-06 09:27 40.06198 45.57593 22832 ft 374 kts 255°
2026-05-06 09:28 40.05570 45.54316 22482 ft 372 kts 255°
2026-05-06 09:28 40.04939 45.51039 22135 ft 372 kts 256°
2026-05-06 09:28 40.04316 45.47797 21786 ft 369 kts 256°
2026-05-06 09:28 40.03695 45.44579 21444 ft 368 kts 256°
2026-05-06 09:29 40.03071 45.41349 21102 ft 366 kts 256°
2026-05-06 09:29 40.02448 45.38128 20761 ft 366 kts 256°
2026-05-06 09:29 40.01831 45.34943 20419 ft 364 kts 255°
2026-05-06 09:29 40.01212 45.31752 20088 ft 362 kts 255°
2026-05-06 09:30 40.00596 45.28583 19754 ft 361 kts 255°
2026-05-06 09:30 39.99978 45.25412 19421 ft 359 kts 255°
2026-05-06 09:30 39.99365 45.22268 19078 ft 353 kts 255°
2026-05-06 09:30 39.98770 45.19221 18735 ft 347 kts 255°
2026-05-06 09:31 39.98171 45.16155 18433 ft 347 kts 255°
2026-05-06 09:31 39.97579 45.13134 18120 ft 346 kts 255°
2026-05-06 09:31 39.96983 45.10097 17796 ft 344 kts 255°
2026-05-06 09:31 39.96393 45.07092 17475 ft 344 kts 255°
2026-05-06 09:32 39.95800 45.04080 17203 ft 337 kts 255°
2026-05-06 09:32 39.95232 45.01173 17105 ft 324 kts 257°
2026-05-06 09:32 39.95026 44.98283 16768 ft 320 kts 273°
2026-05-06 09:32 39.95444 44.95477 16486 ft 315 kts 283°
2026-05-06 09:33 39.96008 44.92767 16205 ft 309 kts 283°
2026-05-06 09:33 39.96572 44.90062 15926 ft 304 kts 283°
2026-05-06 09:33 39.97125 44.87446 15661 ft 302 kts 283°
2026-05-06 09:33 39.97687 44.84791 15401 ft 302 kts 283°
2026-05-06 09:34 39.98246 44.82167 15139 ft 301 kts 283°
2026-05-06 09:34 39.98808 44.79527 14875 ft 301 kts 284°
2026-05-06 09:34 39.99363 44.76918 14612 ft 299 kts 284°
2026-05-06 09:34 39.99922 44.74294 14347 ft 298 kts 284°
2026-05-06 09:35 40.00471 44.71705 14085 ft 301 kts 284°
2026-05-06 09:35 40.01031 44.69065 13817 ft 298 kts 284°
2026-05-06 09:35 40.01566 44.66553 13509 ft 277 kts 284°
2026-05-06 09:35 40.02068 44.64212 13246 ft 260 kts 284°
2026-05-06 09:36 40.02554 44.61949 13022 ft 255 kts 284°
2026-05-06 09:36 40.03031 44.59734 12794 ft 251 kts 284°
2026-05-06 09:36 40.03499 44.57560 12571 ft 246 kts 284°
2026-05-06 09:36 40.03965 44.55401 12348 ft 242 kts 284°
2026-05-06 09:37 40.04411 44.53332 12145 ft 236 kts 284°
2026-05-06 09:37 40.04858 44.51258 11968 ft 230 kts 284°
2026-05-06 09:37 40.05281 44.49296 11864 ft 223 kts 284°
2026-05-06 09:37 40.05712 44.47286 11666 ft 229 kts 284°
2026-05-06 09:38 40.06122 44.45383 11411 ft 208 kts 284°
2026-05-06 09:38 40.06503 44.43634 11237 ft 194 kts 284°
2026-05-06 09:38 40.06869 44.41964 11043 ft 184 kts 284°
2026-05-06 09:38 40.07210 44.40430 10839 ft 177 kts 284°
2026-05-06 09:39 40.07562 44.38830 10727 ft 188 kts 284°
2026-05-06 09:39 40.07929 44.37151 10563 ft 190 kts 285°
2026-05-06 09:39 40.08291 44.35494 10375 ft 189 kts 284°
2026-05-06 09:39 40.08651 44.33846 10196 ft 188 kts 284°
2026-05-06 09:40 40.09009 44.32202 10023 ft 188 kts 284°
2026-05-06 09:40 40.09367 44.30550 9846 ft 188 kts 284°
2026-05-06 09:40 40.10072 44.27275 9497 ft 187 kts 284°
2026-05-06 09:41 40.10429 44.25623 9326 ft 188 kts 284°
2026-05-06 09:41 40.10781 44.23998 9147 ft 185 kts 285°
2026-05-06 09:41 40.11120 44.22433 8926 ft 171 kts 284°
2026-05-06 09:41 40.11435 44.20986 8738 ft 164 kts 285°
2026-05-06 09:42 40.11750 44.19543 8608 ft 164 kts 285°
2026-05-06 09:42 40.12062 44.18108 8478 ft 164 kts 285°
2026-05-06 09:42 40.12374 44.16666 8335 ft 164 kts 285°
2026-05-06 09:42 40.12685 44.15229 8188 ft 165 kts 284°
2026-05-06 09:43 40.12998 44.13787 8046 ft 165 kts 285°
2026-05-06 09:43 40.13307 44.12359 7893 ft 163 kts 285°
2026-05-06 09:43 40.13617 44.10921 7739 ft 163 kts 285°
2026-05-06 09:43 40.13925 44.09494 7593 ft 163 kts 285°
2026-05-06 09:44 40.14232 44.08069 7447 ft 162 kts 285°
2026-05-06 09:44 40.14536 44.06647 7291 ft 162 kts 285°
2026-05-06 09:44 40.14838 44.05231 7043 ft 167 kts 284°
2026-05-06 09:44 40.15146 44.03783 6678 ft 158 kts 285°
2026-05-06 09:45 40.15437 44.02416 6568 ft 159 kts 284°
2026-05-06 09:45 40.15735 44.01010 6500 ft 161 kts 285°
2026-05-06 09:45 40.16037 43.99590 6397 ft 161 kts 285°
2026-05-06 09:45 40.16340 43.98167 6298 ft 160 kts 287°
2026-05-06 09:46 40.16954 43.96995 6178 ft 161 kts 328°
2026-05-06 09:46 40.18039 43.96745 6119 ft 163 kts 14°
2026-05-06 09:46 40.18940 43.97603 6068 ft 165 kts 61°
2026-05-06 09:46 40.19177 43.99034 6121 ft 165 kts 89°
2026-05-06 09:47 40.19183 44.00568 6141 ft 167 kts 89°
2026-05-06 09:47 40.19201 44.02070 6134 ft 165 kts 89°
2026-05-06 09:47 40.19218 44.03589 6132 ft 166 kts 91°
2026-05-06 09:47 40.18876 44.04987 6116 ft 164 kts 129°
2026-05-06 09:48 40.18116 44.06101 6156 ft 166 kts 130°
2026-05-06 09:48 40.17413 44.07315 6099 ft 166 kts 125°
2026-05-06 09:48 40.16772 44.08571 5994 ft 165 kts 123°
2026-05-06 09:48 40.16157 44.09861 5869 ft 166 kts 121°
2026-05-06 09:49 40.15578 44.11139 5720 ft 164 kts 120°
2026-05-06 09:49 40.15193 44.12537 5573 ft 164 kts 102°
2026-05-06 09:49 40.15004 44.14008 5437 ft 165 kts 99°
2026-05-06 09:49 40.14863 44.15514 5220 ft 165 kts 95°
2026-05-06 09:50 40.14772 44.17006 5107 ft 162 kts 93°
2026-05-06 09:50 40.14717 44.18461 5129 ft 163 kts 93°
2026-05-06 09:50 40.14682 44.19973 5117 ft 165 kts 91°
2026-05-06 09:50 40.14663 44.21466 5115 ft 164 kts 90°
2026-05-06 09:51 40.14656 44.22968 5011 ft 168 kts 89°
2026-05-06 09:51 40.14657 44.24485 4772 ft 164 kts 90°
2026-05-06 09:51 40.14661 44.25977 4555 ft 163 kts 90°
2026-05-06 09:51 40.14668 44.27462 4344 ft 164 kts 90°
2026-05-06 09:52 40.14675 44.28941 4129 ft 164 kts 90°
2026-05-06 09:52 40.14683 44.30439 3910 ft 163 kts 90°
2026-05-06 09:52 40.14690 44.31912 3691 ft 163 kts 90°
2026-05-06 09:52 40.14698 44.33389 3471 ft 162 kts 90°
2026-05-06 09:53 40.14706 44.34851 3218 ft 157 kts 89°
2026-05-06 09:53 40.14725 44.36251 2952 ft 153 kts 90°
2026-05-06 09:53 40.14720 44.37655 2867 ft 156 kts 88°
2026-05-06 09:53 40.14728 44.38989 2849 ft 134 kts 87°
2026-05-06 09:54 40.14726 44.39872 2848 ft 56 kts 89°
2026-05-06 09:54 40.14759 44.40044 2848 ft 8 kts 349°
2026-05-06 09:54 40.14804 44.40035 2848 ft 0 kts 353°
2026-05-06 09:55 40.14823 44.40034 2848 ft 5 kts 358°
2026-05-06 09:55 40.14881 44.40033 2848 ft 10 kts
2026-05-06 09:55 40.14951 44.40059 2848 ft 9 kts 46°
2026-05-06 09:55 40.14964 44.40127 2848 ft 6 kts 65°
2026-05-06 09:56 40.14999 44.40145 2848 ft 6 kts
2026-05-06 09:56 40.15051 44.40146 2848 ft 7 kts 358°
2026-05-06 09:56 40.15073 44.40145 2848 ft 0 kts 358°